Theta_e
342 340 341 342 343 342 340 336 332 326 323 322 321 320 319 319 318 323 332 335 337 338 339 334 334 333 333 334 333 335 337 335 334 334 332 331 330 329 330 330 329 329 330
345 344 343 343 343 343 343 343 341 338 333 327 324 323 321 319 318 318 324 333 335 336 338 336 335 335 336 334 333 334 336 336 335 335 335 332 331 331 330 330 330 330 329
345 346 345 345 344 344 344 344 344 343 341 337 332 329 328 327 321 320 322 329 332 336 339 338 337 336 337 337 335 335 336 336 337 336 335 335 333 332 332 331 329 331 330
343 344 344 345 344 344 343 343 343 343 342 341 340 337 335 335 335 325 328 331 332 336 340 339 338 337 337 338 339 337 336 336 337 338 337 337 336 334 333 333 331 328 331
344 343 344 344 343 344 343 342 342 341 340 340 340 339 337 336 337 332 324 327 333 334 337 341 341 340 340 340 340 340 338 338 338 338 337 337 337 336 335 334 334 331 330
345 344 344 344 343 343 343 343 342 341 340 339 338 338 336 336 337 335 333 331 331 335 334 337 342 341 341 342 343 342 340 339 339 339 339 338 338 337 337 336 335 335 333
346 345 346 345 344 342 343 343 342 341 341 340 336 337 338 338 336 335 333 334 334 334 334 333 333 340 343 342 343 342 341 340 339 340 340 340 339 338 338 338 337 336 335
324 325 326 327 332 341 343 343 342 340 340 340 338 334 337 336 335 334 334 333 333 334 335 336 334 333 340 344 343 343 343 342 342 340 341 341 342 340 339 339 339 338 337
324 324 325 326 329 333 336 338 342 342 340 339 338 338 336 338 333 334 332 329 331 329 329 333 338 337 342 344 343 343 340 341 341 341 341 342 344 343 341 340 340 340 340
327 328 328 329 330 331 332 334 338 341 341 338 337 338 338 335 335 334 329 327 326 326 326 330 333 333 337 342 342 341 340 340 341 340 344 344 345 342 342 341 342 339 339
326 325 325 327 328 330 331 332 334 337 337 338 338 336 336 336 333 329 331 328 329 328 326 327 329 330 328 337 340 340 339 339 339 342 343 342 340 340 341 339 339 336 335
324 323 323 322 323 325 327 329 331 332 335 336 337 336 334 331 328 328 330 330 331 330 329 328 327 328 328 330 335 340 339 341 342 341 340 337 337 338 336 337 339 336 336
323 322 322 321 320 319 319 321 324 327 329 331 332 332 332 331 331 331 331 331 331 330 329 330 330 329 330 330 331 338 341 342 341 337 338 337 337 336 334 333 334 332 334
320 321 321 319 317 314 313 314 315 318 321 326 330 330 329 330 331 331 332 331 332 330 330 331 330 330 331 329 332 335 340 339 341 338 337 336 337 336 335 332 331 331 332
321 319 319 317 316 312 310 310 310 312 314 317 319 324 327 329 331 332 332 329 329 331 331 328 329 329 329 329 329 331 335 338 338 337 336 337 337 333 329 329 330 333 334
320 319 319 317 316 313 310 309 309 309 308 309 313 317 320 322 325 328 331 330 329 329 330 328 328 328 328 331 331 332 335 338 336 336 335 335 330 329 330 330 330 332 330
318 318 318 317 316 314 311 310 309 309 309 309 310 313 316 317 321 324 325 326 327 328 330 328 329 330 330 330 329 328 332 334 335 334 334 330 329 331 330 327 330 331 330
317 318 319 319 318 315 313 311 311 310 310 311 310 310 311 315 317 323 325 326 328 329 329 329 329 328 328 328 328 327 326 332 334 334 332 330 332 331 326 326 329 331 331
316 316 317 319 319 317 314 313 312 311 311 312 312 310 310 311 316 318 322 325 326 328 329 329 329 328 328 329 327 327 327 328 331 331 330 332 330 328 328 329 330 330 329
312 312 313 314 317 317 314 313 312 312 312 313 312 312 312 312 313 317 321 323 325 325 324 325 326 325 325 326 326 326 327 328 331 331 330 328 328 329 329 328 329 329 328
310 310 311 311 312 313 313 313 312 312 312 313 312 312 312 310 310 314 317 321 322 323 324 323 323 323 324 324 326 326 327 328 327 326 326 324 322 322 324 327 329 329 328
305 305 306 310 310 311 311 312 312 312 312 313 313 311 310 308 309 311 315 316 319 321 321 322 324 323 323 324 325 325 325 321 323 322 318 318 320 320 320 323 323 322 326
304 305 305 306 307 308 309 310 311 312 312 311 310 309 309 312 313 314 315 316 316 316 318 319 321 322 324 324 324 323 323 319 317 321 319 313 312 313 313 311 314 317 325
303 303 304 305 306 306 307 309 311 311 310 309 308 308 310 311 312 314 315 316 317 316 316 316 318 321 323 324 324 325 322 317 316 315 313 319 318 322 322 322 321 322 327
299 300 301 302 304 306 307 307 308 309 308 308 308 308 310 311 311 315 316 317 318 317 317 317 317 321 324 325 325 320 316 314 314 313 314 317 322 324 324 323 324 327 328
298 299 299 300 300 304 305 305 305 306 306 306 306 307 310 310 314 313 315 314 315 317 318 318 320 323 324 320 318 314 312 313 314 316 316 320 323 324 326 322 321 322 325
Wind_Speed
26 24 23 22 22 20 20 20 20 21 22 22 22 22 22 22 22 23 21 21 19 19 20 23 23 22 21 22 17 21 21 17 18 18 19 19 16 15 15 15 14 15 15
26 26 25 25 25 24 24 23 23 23 26 25 27 25 25 26 25 25 27 24 23 22 19 21 23 23 22 22 21 20 21 21 20 20 21 23 20 17 18 17 16 16 16
24 25 25 26 27 27 26 27 26 26 26 26 29 26 27 28 29 29 28 28 26 24 21 22 24 25 24 24 21 21 23 23 25 22 22 22 22 20 19 21 18 17 17
20 22 24 27 26 26 25 27 27 27 29 31 32 29 27 30 31 30 28 29 28 24 23 26 27 27 28 26 25 22 22 23 24 24 24 22 22 23 23 23 21 17 19
21 20 23 23 23 24 24 24 28 25 28 33 31 28 29 30 31 29 30 31 30 29 26 29 30 29 31 30 28 25 24 23 23 24 24 25 23 24 24 25 25 20 19
17 20 21 23 24 27 27 27 28 27 28 29 26 27 28 28 28 29 29 28 31 31 30 31 31 29 30 30 27 27 28 26 24 25 25 25 26 24 24 25 26 23 21
5 9 13 18 22 25 27 28 30 29 29 28 17 19 23 20 18 16 18 23 31 32 34 35 34 33 32 33 31 27 26 27 27 27 26 26 26 27 25 26 27 24 23
3 3 5 7 10 15 19 24 26 23 23 23 11 3 3 2 8 14 14 16 18 23 30 39 41 36 36 37 33 29 27 27 27 28 25 25 25 27 26 28 29 27 24
3 1 2 4 6 10 15 18 20 23 19 17 22 10 1 6 3 10 16 27 32 38 36 36 33 36 35 31 32 31 29 26 26 26 24 25 24 25 24 26 26 26 22
3 3 1 3 5 7 9 12 14 19 21 18 17 27 28 15 3 3 8 20 22 40 44 43 35 29 29 39 38 34 30 27 25 21 22 22 23 23 23 23 23 21 21
2 3 3 3 5 7 7 8 10 13 17 20 19 13 21 18 18 4 5 7 16 27 35 48 42 39 40 32 43 36 30 26 24 21 19 16 19 23 24 25 26 25 22
3 2 3 6 6 6 7 8 7 9 12 16 22 24 21 10 7 8 5 6 9 21 34 40 44 41 40 38 33 36 30 28 24 20 19 19 18 19 21 23 27 26 25
8 7 5 5 7 8 8 9 8 9 11 14 18 21 23 27 25 21 16 9 7 20 20 31 39 38 35 39 35 30 33 30 24 22 21 22 21 20 19 18 20 22 23
12 11 10 8 7 6 7 8 8 8 9 11 14 15 19 24 27 27 21 12 6 9 16 23 25 35 31 26 29 27 34 32 28 24 24 25 23 19 20 23 24 27 28
17 15 14 13 12 10 8 8 9 8 8 9 11 14 16 20 23 27 30 27 17 8 8 18 17 22 21 27 34 32 30 32 27 26 26 24 22 21 18 19 19 18 18
21 20 20 19 18 16 13 11 9 8 9 10 11 12 14 18 19 23 25 23 26 22 11 22 20 29 30 24 22 25 27 30 34 29 25 22 21 18 20 20 20 20 21
26 27 27 26 24 22 19 18 15 13 12 11 13 12 15 16 19 21 23 27 26 26 14 25 26 22 23 23 18 12 12 21 28 25 21 17 19 20 23 23 21 22 21
30 32 33 33 30 28 26 24 22 19 18 16 14 14 17 18 18 19 22 26 26 27 24 16 22 28 28 28 27 22 15 16 20 21 18 18 19 22 21 21 21 21 22
31 31 33 35 36 35 33 31 28 26 24 23 20 18 19 21 23 23 22 22 23 26 25 21 18 28 31 35 27 22 19 16 15 18 19 20 19 19 20 19 20 19 20
26 28 32 36 38 39 37 35 33 31 29 29 27 25 23 23 28 26 23 26 26 24 25 20 20 17 18 22 22 17 20 14 18 20 20 18 17 16 16 17 18 16 17
28 29 30 33 36 39 39 38 38 36 34 32 29 27 26 26 32 34 27 25 26 26 24 21 19 20 21 18 15 21 16 16 18 16 15 16 14 16 14 14 14 14 15
38 38 37 35 35 36 36 39 40 38 35 32 30 28 28 32 34 36 36 37 31 28 27 25 21 20 22 22 20 16 9 7 3 16 15 14 14 17 17 17 16 15 15
31 32 33 34 35 38 38 38 40 39 35 32 30 29 29 26 27 31 34 38 42 45 44 33 29 27 23 25 25 13 18 15 10 12 11 10 13 17 15 18 18 17 16
26 25 27 29 31 33 34 36 34 35 33 32 33 30 29 29 30 33 33 36 36 38 40 45 40 36 31 24 22 23 27 17 8 10 11 4 4 7 8 9 11 13 15
22 24 25 28 27 26 30 30 29 31 29 28 28 28 30 32 36 39 41 38 38 40 35 38 35 34 31 25 22 23 21 12 4 8 13 6 4 2 1 3 4 6 11
24 23 24 25 27 28 28 34 36 30 28 28 32 33 33 34 35 37 40 41 41 42 37 29 34 30 25 21 27 25 18 10 4 4 13 10 6 5 3 2 4 4 6
Wind_Direction
237 240 244 250 256 257 259 259 263 268 269 271 273 273 273 270 271 270 269 272 271 272 272 253 253 260 257 251 248 248 248 239 239 236 237 240 234 232 236 235 235 239 240
240 245 248 253 259 261 267 269 273 273 273 272 271 270 274 278 274 275 273 270 275 278 280 255 251 255 259 250 250 249 246 246 241 243 238 237 233 232 234 236 238 239 241
244 252 258 262 264 267 268 268 269 271 272 274 273 276 279 279 279 277 276 275 277 272 269 261 255 255 262 262 260 259 255 254 252 246 243 244 247 245 242 239 236 246 246
260 262 265 266 271 275 275 272 271 272 273 272 272 276 282 285 282 278 279 280 282 276 277 264 264 261 263 264 264 263 264 262 261 259 256 253 253 253 253 251 244 240 250
262 269 272 274 278 274 272 274 275 273 277 277 278 283 285 283 286 289 282 281 284 282 281 274 271 270 267 268 267 267 264 264 263 256 256 255 253 254 255 257 258 253 249
265 263 268 270 271 272 273 269 269 273 274 277 278 284 285 288 292 293 290 288 284 282 285 282 277 271 268 269 268 268 263 262 266 263 260 258 257 257 258 258 254 253 254
300 289 283 281 273 266 268 271 272 268 266 266 274 278 278 280 285 305 325 327 301 292 285 280 278 274 270 267 269 267 264 261 261 260 261 260 256 254 255 260 259 256 259
53 10 337 323 304 284 279 273 266 256 263 257 228 222 271 256 234 253 277 318 340 338 321 296 285 273 270 269 262 266 269 267 260 258 261 258 261 256 253 256 253 253 252
111 66 343 314 308 295 284 284 277 266 245 244 227 207 210 228 160 226 258 263 276 294 288 303 302 284 267 262 263 270 271 266 260 257 259 259 259 259 255 256 257 260 262
112 100 48 344 321 315 308 295 284 275 261 244 230 233 238 259 189 294 266 260 263 254 263 266 285 297 292 270 264 269 270 265 255 255 259 252 249 255 254 250 250 252 250
4 1 4 343 309 298 306 303 295 272 265 253 239 241 243 250 240 202 263 273 251 254 251 256 269 277 286 293 274 264 263 255 247 249 243 245 249 254 254 258 257 253 249
218 238 290 304 299 295 297 304 298 287 270 257 261 259 247 234 217 200 215 242 235 256 256 254 256 270 275 274 292 270 258 247 249 243 245 253 255 256 262 261 257 254 254
231 241 245 251 282 290 289 291 294 288 288 278 273 269 266 255 250 249 233 231 233 258 269 266 263 275 264 259 272 272 254 244 241 250 248 255 255 255 253 254 256 263 263
244 244 247 254 265 269 288 297 296 300 302 294 293 291 283 264 259 251 238 232 240 235 240 247 252 253 247 255 266 268 255 247 240 249 248 254 254 255 258 265 267 268 266
231 234 241 245 244 247 263 275 292 304 305 300 293 293 289 282 269 257 251 236 225 242 259 269 233 251 268 264 257 268 264 251 252 250 247 248 248 258 257 268 267 269 269
238 239 241 240 240 238 240 240 253 265 283 296 297 288 279 277 275 272 255 235 232 240 253 256 256 276 285 282 260 257 261 246 249 252 245 246 251 244 265 270 263 260 259
248 246 248 244 243 241 241 237 238 243 250 266 285 285 286 287 282 274 266 255 247 242 248 261 260 256 250 251 252 274 279 255 244 241 239 240 241 259 269 268 263 264 264
260 253 251 246 244 244 243 239 240 241 243 246 258 271 280 280 275 274 262 247 243 237 232 244 247 244 239 248 266 263 272 268 245 242 242 235 247 263 263 265 264 267 267
278 274 266 260 253 248 244 242 241 242 240 239 241 248 265 275 269 264 258 254 245 238 231 232 239 249 251 253 253 248 250 279 254 250 244 245 257 259 256 257 262 262 262
291 287 278 268 258 255 254 249 245 242 242 242 243 247 252 264 271 260 248 242 240 234 231 235 239 248 253 251 248 250 243 271 256 246 251 246 244 246 250 258 255 262 262
294 292 287 282 274 261 255 252 249 244 242 243 246 252 257 267 276 269 252 241 235 235 242 241 244 257 254 247 228 229 215 253 241 229 227 229 233 241 247 249 248 253 266
289 286 283 281 277 269 261 258 254 247 245 242 247 259 271 279 278 272 265 252 242 238 241 243 248 240 244 234 227 210 184 171 223 226 228 237 242 255 255 255 252 258 267
282 278 276 276 273 274 275 268 260 248 241 244 253 262 269 262 263 263 265 260 253 251 247 246 250 249 242 221 216 187 193 187 194 181 207 257 253 263 263 256 253 243 243
283 283 278 274 273 273 273 273 263 244 248 257 262 267 265 267 266 257 256 252 248 250 251 248 242 249 243 233 240 238 204 195 179 198 215 205 227 275 267 255 245 240 228
280 279 278 276 275 276 273 268 257 255 259 265 270 274 271 270 271 261 250 245 247 245 247 241 240 232 237 233 242 209 173 162 176 212 208 188 198 199 121 216 274 238 229
280 278 280 278 277 276 271 267 270 269 270 272 274 270 264 271 268 278 263 259 246 235 223 216 210 215 227 204 194 195 181 171 144 208 213 175 170 171 175 210 14 354 236